Location: Newark
(49.2191°N, 12.6671°E)
Time: 21:04:51
(UTC+00:00)

Transit 2A - Pass Details

Date: 31 January 2020
Orbit: 600 x 959 km, 66.7° (Epoch: 22 February)

Event Time Altitude Azimuth Distance (km) Brightness Sun altitude
Rises 17:51:50 0° 212° (SSW) 2,872 9.6 -17.8°
Reaches altitude 10° 17:54:05 10° 212° (SSW) 1,951 8.6 -18.1°
Maximum altitude 17:58:26 85° 124° (SE) 609 5.4 -18.8°
Enters shadow 18:00:20 33° 38° (NE) 1,018 6.3 -19.1°
